Weather in Smirnykh

Russia / Sakhalin District     49°44′45″N   142°50′06″E
temp.,
°C
wind,
m/s
gust,
m/s
humid.,
%
clouds,
%
prec.,
mm/h
press.,
hPa
HPBL,
m
4 december, sat
sat423:00−9nw2586100 0.0 1008131
02:00−9wnw2389100 0.0 100972
05:00−9nnw2494100 0.3 1009181
08:00−13nw359253 0.0 1010111
11:00−12nnw35797 0.0 1012269
14:00−11n246381 0.0 1011677
17:00−13nw238145 0.0 101265
20:00−17wnw229252 0.0 101425
5 december, sun
sun523:00−18w229510 0.0 101419
02:00−18wnw219626 0.0 101413
05:00−18w119776 0.1 101411
08:00−17wsw219657 0.0 101518
11:00−14sw128516 0.0 1015103
14:00−9sw266830 0.0 1013674
17:00−11sw248422 0.0 1014196
20:00−12w239571 0.1 1016119
6 december, mon
mon623:00−12wnw119648 0.1 101615
02:00−12w219580 0.0 101722
05:00−12w229311 0.0 101623
08:00−11w21965 0.0 101612
11:00−6s11895 0.0 101551
14:00−2sse178433 0.0 1012630
17:00−3ssw26844 0.0 1010231
20:00−1wsw5127617 0.0 1010666
7 december, tue
tue723:00−1w614715 0.0 1010769
02:00−5w7157521 0.0 1013781
05:00−6wnw614696 0.0 1016737
08:00−7wnw512665 0.0 1019668
11:00−7wnw410672 0.0 1022751
14:00−5wsw37634 0.0 10221060
17:00−7wsw39725 0.0 1023493
20:00−7wsw412715 0.0 1023560
8 december, wed
wed823:00−7w4107628 0.0 1024468
02:00−8w38793 0.0 1025264
05:00−11w24885 0.0 102772
08:00−12w32875 0.0 102833
11:00−9wsw22822 0.0 102868
14:00−4wsw26641 0.0 1027545
17:00−8sw21915 0.0 102814
20:00−11w22926 0.0 102922